Notices

What's New in latest Release from April 7th, 2021:

- Updated Glossary, including Speed of Maximum Gust, and Total Hourly Precipitation

- Updated national and regional climate services offices contacts and prices information

- Addition of station inventory lists for 1981-2010, 1971-2000, and 1961-1990 Normals.

If you haven't already, please take our survey and provide feedback about our website: https://eccc.sondage-survey.ca/f/LanguageSelection.aspx?s=442ca660-fcf1-47c0-95a9-59707d6fd709

Hourly Data Report for February 08, 2003

TORONTO CITY
ONTARIO

43°40'00.000" N
79°24'00.000" W
112.50 m
6158355
71508
XTO

Download Data

Hourly Data (February 2003)
Hourly Data Report for February 8, 2003
TIME
LST
Temp Definition
°C
Dew Point Definition
°C
Rel Hum Definition
%
Precip. Amount Definition
mm

Wind Dir Definition
10's deg

Wind Spd Definition
km/h
Visibility Definition
km
Stn Press Definition
kPa
Hmdx Definition


Wind Chill Definition


Weather Definition


00:00
01:00
02:00 -8.3 -14.4 61     0 LegendMM 100.06     LegendNANA
03:00 -8.6 -14.5 62     0 LegendMM 100.05     LegendNANA
04:00 -9.0 -14.7 63     0 LegendMM 100.04     LegendNANA
05:00
06:00 -9.3 -14.2 67     0 LegendMM 100.06     LegendNANA
07:00 -9.4 -14.5 66     0 LegendMM 100.06     LegendNANA
08:00 -9.2 -14.3 66     0 LegendMM 100.03     LegendNANA
09:00 -8.2 -14.9 58     0 LegendMM 100.05     LegendNANA
10:00 -7.3 -15.6 51     0 LegendMM 99.99     LegendNANA
11:00 -5.2 -14.8 47     0 LegendMM 99.96     LegendNANA
12:00 LegendMM LegendMM LegendMM   LegendMM LegendMM LegendMM LegendMM     LegendNANA
13:00 -4.0 -11.3 57     0 LegendMM 99.81     LegendNANA
14:00 -4.4 -12.2 54     0 LegendMM 99.75     LegendNANA
15:00 -4.5 -11.6 58     0 LegendMM 99.71     LegendNANA
16:00 -4.3 -12.3 54     0 LegendMM 99.74     LegendNANA
17:00 -4.4 -11.9 56     0 LegendMM 99.72     LegendNANA
18:00 -4.4 -11.1 59     0 LegendMM 99.76     LegendNANA
19:00 -4.4 -10.9 60     0 LegendMM 99.79     LegendNANA
20:00 -4.0 -9.7 64     0 LegendMM 99.79     LegendNANA
21:00 -3.8 -8.6 69     0 LegendMM 99.74     LegendNANA
22:00 -3.8 -7.0 78     0 LegendMM 99.69     LegendNANA
23:00 -3.6 -6.5 80     0 LegendMM 99.66     LegendNANA

Notes on Data Quality.

Legend

  • E = Estimated
  • M = Missing
  • NA = Not Available*
  • [empty] = Indicates an unobserved value
Date modified: